Wetterdaten: Mittwoch, 20.03.2019
Datum Zeit Temp. A. Temp. A. min Temp. A. max Feuchte A. Bod.Feucht 4 Luftdruck Regen Wind Richtung Richtung Sonnenschein ET Solar Taupunkt Windchill Windben Empfang
20.03.2019 00:00 2,1 C 2,1 C 2,3 C 71 % 0 cb 1032,9 hPa 0,0 l/m 0,0 km/h (0 Bft) N-NO 22 0 min 0,025 mm 0 W/m -2,6 C 2,1 C 3,2 km/h (1 Bft) 100,00 %
20.03.2019 00:10 2,2 C 2,1 C 2,2 C 71 % 0 cb 1033,1 hPa 0,0 l/m 0,0 km/h (0 Bft) N-NO 22 0 min 0,000 mm 0 W/m -2,5 C 2,2 C 1,6 km/h (1 Bft) 100,00 %
20.03.2019 00:20 2,1 C 2,1 C 2,2 C 72 % 0 cb 1033,1 hPa 0,0 l/m 1,6 km/h (1 Bft) N-NO 22 0 min 0,000 mm 0 W/m -2,4 C 2,1 C 4,8 km/h (1 Bft) 100,00 %
20.03.2019 00:30 1,9 C 1,8 C 2,1 C 73 % 0 cb 1033,1 hPa 0,0 l/m 1,6 km/h (1 Bft) N-NO 22 0 min 0,000 mm 0 W/m -2,4 C 1,9 C 4,8 km/h (1 Bft) 100,00 %
20.03.2019 00:40 1,8 C 1,8 C 1,9 C 74 % 0 cb 1033,3 hPa 0,0 l/m 1,6 km/h (1 Bft) N-NO 22 0 min 0,000 mm 0 W/m -2,3 C 1,8 C 6,4 km/h (2 Bft) 100,00 %
20.03.2019 00:50 1,7 C 1,7 C 1,8 C 74 % 0 cb 1033,2 hPa 0,0 l/m 0,0 km/h (0 Bft) N-NO 22 0 min 0,000 mm 0 W/m -2,4 C 1,7 C 3,2 km/h (1 Bft) 100,00 %
20.03.2019 01:00 1,4 C 1,4 C 1,7 C 75 % 0 cb 1033,2 hPa 0,0 l/m 0,0 km/h (0 Bft) N-NO 22 0 min 0,025 mm 0 W/m -2,5 C 1,4 C 1,6 km/h (1 Bft) 100,00 %
20.03.2019 01:10 1,2 C 1,2 C 1,3 C 76 % 0 cb 1033,1 hPa 0,0 l/m 1,6 km/h (1 Bft) N-NO 22 0 min 0,000 mm 0 W/m -2,5 C 1,2 C 3,2 km/h (1 Bft) 100,00 %
20.03.2019 01:20 1,2 C 1,2 C 1,3 C 77 % 0 cb 1033,2 hPa 0,0 l/m 0,0 km/h (0 Bft) N-NO 22 0 min 0,000 mm 0 W/m -2,4 C 1,2 C 1,6 km/h (1 Bft) 99,56 %
20.03.2019 01:30 0,9 C 0,9 C 1,2 C 77 % 0 cb 1033,3 hPa 0,0 l/m 0,0 km/h (0 Bft) N-NO 22 0 min 0,000 mm 0 W/m -2,7 C 0,9 C 1,6 km/h (1 Bft) 100,00 %
20.03.2019 01:40 0,6 C 0,6 C 0,9 C 79 % 0 cb 1033,3 hPa 0,0 l/m 0,0 km/h (0 Bft) N 0 0 min 0,000 mm 0 W/m -2,6 C 0,6 C 0,0 km/h (0 Bft) 100,00 %
20.03.2019 01:50 0,3 C 0,3 C 0,6 C 81 % 0 cb 1033,3 hPa 0,0 l/m 0,0 km/h (0 Bft) N-NO 22 0 min 0,000 mm 0 W/m -2,6 C 0,3 C 1,6 km/h (1 Bft) 99,56 %
20.03.2019 02:00 0,3 C 0,3 C 0,3 C 81 % 0 cb 1033,1 hPa 0,0 l/m 0,0 km/h (0 Bft) N-NO 22 0 min 0,000 mm 0 W/m -2,6 C 0,3 C 1,6 km/h (1 Bft) 99,12 %
20.03.2019 02:10 0,1 C 0,1 C 0,3 C 80 % 0 cb 1033,1 hPa 0,0 l/m 0,0 km/h (0 Bft) N 0 0 min 0,000 mm 0 W/m -2,9 C 0,1 C 0,0 km/h (0 Bft) 100,00 %
20.03.2019 02:20 -0,3 C -0,3 C 0,0 C 82 % 0 cb 1032,9 hPa 0,0 l/m 0,0 km/h (0 Bft) N 0 0 min 0,000 mm 0 W/m -3,0 C -0,3 C 0,0 km/h (0 Bft) 100,00 %
20.03.2019 02:30 -0,7 C -0,7 C -0,3 C 83 % 0 cb 1032,9 hPa 0,0 l/m 0,0 km/h (0 Bft) N 0 0 min 0,000 mm 0 W/m -3,2 C -0,7 C 0,0 km/h (0 Bft) 100,00 %
20.03.2019 02:40 -0,9 C -0,9 C -0,7 C 85 % 0 cb 1033,0 hPa 0,0 l/m 0,0 km/h (0 Bft) N 0 0 min 0,000 mm 0 W/m -3,1 C -0,9 C 0,0 km/h (0 Bft) 100,00 %
20.03.2019 02:50 -1,1 C -1,1 C -0,9 C 86 % 0 cb 1033,1 hPa 0,0 l/m 0,0 km/h (0 Bft) N 0 0 min 0,000 mm 0 W/m -3,1 C -1,1 C 0,0 km/h (0 Bft) 100,00 %
20.03.2019 03:00 -1,0 C -1,1 C -1,0 C 87 % 0 cb 1033,1 hPa 0,0 l/m 0,0 km/h (0 Bft) N 0 0 min 0,000 mm 0 W/m -2,9 C -1,0 C 0,0 km/h (0 Bft) 100,00 %
20.03.2019 03:10 -1,1 C -1,1 C -1,0 C 87 % 0 cb 1033,1 hPa 0,0 l/m 0,0 km/h (0 Bft) N 0 0 min 0,000 mm 0 W/m -3,0 C -1,1 C 0,0 km/h (0 Bft) 100,00 %
20.03.2019 03:20 -0,9 C -1,1 C -0,9 C 88 % 0 cb 1033,2 hPa 0,0 l/m 0,0 km/h (0 Bft) N-NO 22 0 min 0,000 mm 0 W/m -2,6 C -0,9 C 1,6 km/h (1 Bft) 100,00 %
20.03.2019 03:30 -0,8 C -0,9 C -0,8 C 86 % 0 cb 1033,2 hPa 0,0 l/m 0,0 km/h (0 Bft) N-NO 22 0 min 0,000 mm 0 W/m -2,8 C -0,8 C 1,6 km/h (1 Bft) 100,00 %
20.03.2019 03:40 -0,8 C -0,9 C -0,8 C 87 % 0 cb 1033,2 hPa 0,0 l/m 0,0 km/h (0 Bft) N-NO 22 0 min 0,000 mm 0 W/m -2,7 C -0,8 C 1,6 km/h (1 Bft) 100,00 %
20.03.2019 03:50 -0,8 C -0,8 C -0,8 C 87 % 0 cb 1033,2 hPa 0,0 l/m 0,0 km/h (0 Bft) N 0 0 min 0,000 mm 0 W/m -2,7 C -0,8 C 0,0 km/h (0 Bft) 100,00 %
20.03.2019 04:00 -0,9 C -0,9 C -0,8 C 86 % 0 cb 1033,3 hPa 0,0 l/m 0,0 km/h (0 Bft) N 0 0 min 0,000 mm 0 W/m -2,9 C -0,9 C 0,0 km/h (0 Bft) 100,00 %
20.03.2019 04:10 -1,1 C -1,1 C -0,9 C 86 % 0 cb 1033,3 hPa 0,0 l/m 0,0 km/h (0 Bft) N-NO 22 0 min 0,000 mm 0 W/m -3,1 C -1,1 C 1,6 km/h (1 Bft) 100,00 %
20.03.2019 04:20 -1,2 C -1,2 C -1,1 C 87 % 0 cb 1033,3 hPa 0,0 l/m 0,0 km/h (0 Bft) N 0 0 min 0,000 mm 0 W/m -3,1 C -1,2 C 0,0 km/h (0 Bft) 100,00 %
20.03.2019 04:30 -1,2 C -1,2 C -1,2 C 87 % 0 cb 1033,4 hPa 0,0 l/m 0,0 km/h (0 Bft) N 0 0 min 0,000 mm 0 W/m -3,1 C -1,2 C 0,0 km/h (0 Bft) 100,00 %
20.03.2019 04:40 -1,3 C -1,3 C -1,2 C 87 % 0 cb 1033,4 hPa 0,0 l/m 0,0 km/h (0 Bft) N 0 0 min 0,000 mm 0 W/m -3,2 C -1,3 C 0,0 km/h (0 Bft) 100,00 %
20.03.2019 04:50 -1,4 C -1,4 C -1,3 C 87 % 0 cb 1033,5 hPa 0,0 l/m 0,0 km/h (0 Bft) N 0 0 min 0,000 mm 0 W/m -3,3 C -1,4 C 0,0 km/h (0 Bft) 100,00 %
20.03.2019 05:00 -1,4 C -1,4 C -1,4 C 88 % 0 cb 1033,5 hPa 0,0 l/m 0,0 km/h (0 Bft) N 0 0 min 0,000 mm 0 W/m -3,1 C -1,4 C 0,0 km/h (0 Bft) 100,00 %
20.03.2019 05:10 -1,4 C -1,4 C -1,4 C 88 % 0 cb 1033,5 hPa 0,0 l/m 0,0 km/h (0 Bft) N 0 0 min 0,000 mm 0 W/m -3,1 C -1,4 C 0,0 km/h (0 Bft) 100,00 %
20.03.2019 05:20 -1,4 C -1,4 C -1,4 C 89 % 0 cb 1033,5 hPa 0,0 l/m 0,0 km/h (0 Bft) N 0 0 min 0,000 mm 0 W/m -3,0 C -1,4 C 0,0 km/h (0 Bft) 100,00 %
20.03.2019 05:30 -1,5 C -1,6 C -1,4 C 88 % 0 cb 1033,5 hPa 0,0 l/m 0,0 km/h (0 Bft) N 0 0 min 0,000 mm 0 W/m -3,2 C -1,5 C 0,0 km/h (0 Bft) 100,00 %
20.03.2019 05:40 -1,7 C -1,7 C -1,5 C 88 % 0 cb 1033,5 hPa 0,0 l/m 0,0 km/h (0 Bft) N 0 0 min 0,000 mm 0 W/m -3,4 C -1,7 C 0,0 km/h (0 Bft) 100,00 %
20.03.2019 05:50 -1,9 C -1,9 C -1,7 C 89 % 0 cb 1033,5 hPa 0,0 l/m 0,0 km/h (0 Bft) N 0 0 min 0,000 mm 0 W/m -3,5 C -1,9 C 0,0 km/h (0 Bft) 100,00 %
20.03.2019 06:00 -1,9 C -1,9 C -1,9 C 90 % 0 cb 1033,6 hPa 0,0 l/m 0,0 km/h (0 Bft) N 0 0 min 0,000 mm 0 W/m -3,3 C -1,9 C 0,0 km/h (0 Bft) 100,00 %
20.03.2019 06:10 -1,8 C -1,9 C -1,7 C 90 % 0 cb 1033,8 hPa 0,0 l/m 0,0 km/h (0 Bft) N 0 0 min 0,000 mm 0 W/m -3,2 C -1,8 C 0,0 km/h (0 Bft) 100,00 %
20.03.2019 06:20 -1,8 C -1,8 C -1,7 C 89 % 0 cb 1033,9 hPa 0,0 l/m 0,0 km/h (0 Bft) N 0 0 min 0,000 mm 0 W/m -3,4 C -1,8 C 0,0 km/h (0 Bft) 100,00 %
20.03.2019 06:30 -1,8 C -1,8 C -1,8 C 89 % 0 cb 1034,0 hPa 0,0 l/m 0,0 km/h (0 Bft) N 0 0 min 0,000 mm 0 W/m -3,4 C -1,8 C 0,0 km/h (0 Bft) 100,00 %
20.03.2019 06:40 -2,0 C -2,0 C -1,8 C 89 % 0 cb 1034,1 hPa 0,0 l/m 0,0 km/h (0 Bft) N 0 0 min 0,000 mm 7 W/m -3,6 C -2,0 C 0,0 km/h (0 Bft) 100,00 %
20.03.2019 06:50 -2,1 C -2,1 C -2,0 C 90 % 0 cb 1034,2 hPa 0,0 l/m 0,0 km/h (0 Bft) N-NO 22 0 min 0,000 mm 11 W/m -3,5 C -2,1 C 1,6 km/h (1 Bft) 100,00 %
20.03.2019 07:00 -1,9 C -2,1 C -1,9 C 90 % 0 cb 1034,3 hPa 0,0 l/m 0,0 km/h (0 Bft) N-NO 22 0 min 0,000 mm 16 W/m -3,3 C -1,9 C 1,6 km/h (1 Bft) 100,00 %
20.03.2019 07:10 -1,8 C -1,9 C -1,8 C 90 % 0 cb 1034,4 hPa 0,0 l/m 0,0 km/h (0 Bft) N 0 0 min 0,000 mm 19 W/m -3,2 C -1,8 C 0,0 km/h (0 Bft) 100,00 %
20.03.2019 07:20 -1,7 C -1,8 C -1,7 C 91 % 0 cb 1034,5 hPa 0,0 l/m 0,0 km/h (0 Bft) N-NO 22 0 min 0,000 mm 23 W/m -3,0 C -1,7 C 1,6 km/h (1 Bft) 100,00 %
20.03.2019 07:30 -1,7 C -1,7 C -1,7 C 90 % 0 cb 1034,6 hPa 0,0 l/m 0,0 km/h (0 Bft) N 0 0 min 0,000 mm 25 W/m -3,1 C -1,7 C 0,0 km/h (0 Bft) 100,00 %
20.03.2019 07:40 -1,7 C -1,7 C -1,7 C 90 % 0 cb 1034,7 hPa 0,0 l/m 0,0 km/h (0 Bft) N 0 0 min 0,000 mm 28 W/m -3,1 C -1,7 C 0,0 km/h (0 Bft) 98,68 %
20.03.2019 07:50 -1,7 C -1,7 C -1,7 C 91 % 0 cb 1034,8 hPa 0,0 l/m 0,0 km/h (0 Bft) N 0 0 min 0,000 mm 32 W/m -3,0 C -1,7 C 0,0 km/h (0 Bft) 99,12 %
20.03.2019 08:00 -1,3 C -1,7 C -1,3 C 92 % 0 cb 1034,9 hPa 0,0 l/m 0,0 km/h (0 Bft) N 0 0 min 0,000 mm 33 W/m -2,4 C -1,3 C 0,0 km/h (0 Bft) 98,68 %
20.03.2019 08:10 -0,9 C -1,3 C -0,9 C 92 % 0 cb 1034,9 hPa 0,0 l/m 0,0 km/h (0 Bft) N 0 10 min 0,000 mm 199 W/m -2,0 C -0,9 C 0,0 km/h (0 Bft) 100,00 %
20.03.2019 08:20 -0,2 C -0,9 C -0,2 C 93 % 0 cb 1035,0 hPa 0,0 l/m 0,0 km/h (0 Bft) N 0 10 min 0,000 mm 220 W/m -1,2 C -0,2 C 0,0 km/h (0 Bft) 98,68 %
20.03.2019 08:30 0,6 C -0,2 C 0,6 C 91 % 0 cb 1035,0 hPa 0,0 l/m 0,0 km/h (0 Bft) N 0 10 min 0,000 mm 239 W/m -0,7 C 0,6 C 0,0 km/h (0 Bft) 100,00 %
20.03.2019 08:40 1,4 C 0,7 C 1,4 C 89 % 0 cb 1035,0 hPa 0,0 l/m 0,0 km/h (0 Bft) N 0 10 min 0,000 mm 285 W/m -0,2 C 1,4 C 0,0 km/h (0 Bft) 100,00 %
20.03.2019 08:50 2,6 C 1,4 C 2,6 C 86 % 0 cb 1035,1 hPa 0,0 l/m 0,0 km/h (0 Bft) N 0 10 min 0,000 mm 320 W/m 0,5 C 2,6 C 0,0 km/h (0 Bft) 100,00 %
20.03.2019 09:00 4,0 C 2,7 C 4,0 C 82 % 0 cb 1035,2 hPa 0,0 l/m 0,0 km/h (0 Bft) N-NO 22 10 min 0,076 mm 348 W/m 1,2 C 4,0 C 1,6 km/h (1 Bft) 100,00 %
20.03.2019 09:10 5,0 C 4,0 C 5,0 C 78 % 0 cb 1035,3 hPa 0,0 l/m 0,0 km/h (0 Bft) N 0 10 min 0,000 mm 371 W/m 1,5 C 5,0 C 0,0 km/h (0 Bft) 100,00 %
20.03.2019 09:20 6,1 C 5,0 C 6,1 C 76 % 0 cb 1035,3 hPa 0,0 l/m 0,0 km/h (0 Bft) N-NO 22 10 min 0,000 mm 399 W/m 2,2 C 6,1 C 1,6 km/h (1 Bft) 99,56 %
20.03.2019 09:30 6,9 C 6,1 C 6,9 C 74 % 0 cb 1035,4 hPa 0,0 l/m 0,0 km/h (0 Bft) N-NO 22 10 min 0,000 mm 424 W/m 2,6 C 6,9 C 1,6 km/h (1 Bft) 100,00 %
20.03.2019 09:40 7,6 C 6,9 C 7,6 C 69 % 0 cb 1035,6 hPa 0,0 l/m 0,0 km/h (0 Bft) N-NO 22 10 min 0,000 mm 445 W/m 2,3 C 7,6 C 1,6 km/h (1 Bft) 100,00 %
20.03.2019 09:50 8,1 C 7,6 C 8,1 C 63 % 0 cb 1035,6 hPa 0,0 l/m 0,0 km/h (0 Bft) N-NO 22 10 min 0,000 mm 469 W/m 1,5 C 8,1 C 3,2 km/h (1 Bft) 100,00 %
20.03.2019 10:00 8,5 C 8,1 C 8,5 C 61 % 0 cb 1035,6 hPa 0,0 l/m 0,0 km/h (0 Bft) N-NO 22 10 min 0,178 mm 492 W/m 1,4 C 8,5 C 3,2 km/h (1 Bft) 100,00 %
20.03.2019 10:10 8,6 C 8,5 C 8,6 C 57 % 0 cb 1035,6 hPa 0,0 l/m 1,6 km/h (1 Bft) N-NO 22 10 min 0,000 mm 515 W/m 0,6 C 8,6 C 3,2 km/h (1 Bft) 100,00 %
20.03.2019 10:20 8,7 C 8,6 C 8,7 C 60 % 0 cb 1035,5 hPa 0,0 l/m 1,6 km/h (1 Bft) O 90 10 min 0,000 mm 536 W/m 1,4 C 8,7 C 4,8 km/h (1 Bft) 100,00 %
20.03.2019 10:30 9,0 C 8,7 C 9,0 C 59 % 0 cb 1035,5 hPa 0,0 l/m 1,6 km/h (1 Bft) O 90 10 min 0,000 mm 555 W/m 1,4 C 9,0 C 6,4 km/h (2 Bft) 100,00 %
20.03.2019 10:40 9,2 C 8,9 C 9,2 C 52 % 0 cb 1035,6 hPa 0,0 l/m 1,6 km/h (1 Bft) O-SO 112 10 min 0,000 mm 566 W/m -0,1 C 9,2 C 6,4 km/h (2 Bft) 100,00 %
20.03.2019 10:50 9,5 C 9,2 C 9,5 C 53 % 0 cb 1035,6 hPa 0,0 l/m 1,6 km/h (1 Bft) S-SW 202 10 min 0,000 mm 573 W/m 0,4 C 9,5 C 6,4 km/h (2 Bft) 100,00 %
20.03.2019 11:00 9,9 C 9,5 C 9,9 C 50 % 0 cb 1035,6 hPa 0,0 l/m 1,6 km/h (1 Bft) S-SW 202 10 min 0,254 mm 601 W/m -0,0 C 9,9 C 6,4 km/h (2 Bft) 100,00 %
20.03.2019 11:10 10,2 C 9,9 C 10,2 C 49 % 0 cb 1035,7 hPa 0,0 l/m 1,6 km/h (1 Bft) S-SW 202 10 min 0,000 mm 622 W/m -0,0 C 10,2 C 8,0 km/h (2 Bft) 100,00 %
20.03.2019 11:20 10,3 C 10,1 C 10,3 C 49 % 0 cb 1035,6 hPa 0,0 l/m 1,6 km/h (1 Bft) S-SO 157 10 min 0,000 mm 622 W/m 0,1 C 10,3 C 4,8 km/h (1 Bft) 100,00 %
20.03.2019 11:30 10,5 C 10,3 C 10,5 C 50 % 0 cb 1035,6 hPa 0,0 l/m 3,2 km/h (1 Bft) SO 135 10 min 0,000 mm 642 W/m 0,5 C 10,5 C 8,0 km/h (2 Bft) 100,00 %
20.03.2019 11:40 10,7 C 10,5 C 10,7 C 51 % 0 cb 1035,5 hPa 0,0 l/m 3,2 km/h (1 Bft) O-SO 112 10 min 0,000 mm 645 W/m 1,0 C 10,7 C 11,3 km/h (2 Bft) 100,00 %
20.03.2019 11:50 10,8 C 10,7 C 10,9 C 48 % 0 cb 1035,5 hPa 0,0 l/m 3,2 km/h (1 Bft) O-SO 112 10 min 0,000 mm 659 W/m 0,2 C 10,8 C 6,4 km/h (2 Bft) 100,00 %
20.03.2019 12:00 11,0 C 10,8 C 11,0 C 50 % 0 cb 1035,4 hPa 0,0 l/m 1,6 km/h (1 Bft) O-SO 112 10 min 0,305 mm 652 W/m 1,0 C 11,0 C 6,4 km/h (2 Bft) 100,00 %
20.03.2019 12:10 11,2 C 11,1 C 11,2 C 48 % 0 cb 1035,3 hPa 0,0 l/m 1,6 km/h (1 Bft) O-SO 112 10 min 0,000 mm 668 W/m 0,6 C 11,2 C 8,0 km/h (2 Bft) 100,00 %
20.03.2019 12:20 11,4 C 11,2 C 11,5 C 50 % 0 cb 1035,3 hPa 0,0 l/m 3,2 km/h (1 Bft) S 180 10 min 0,000 mm 664 W/m 1,4 C 11,4 C 12,9 km/h (3 Bft) 100,00 %
20.03.2019 12:30 11,4 C 11,3 C 11,4 C 50 % 0 cb 1035,2 hPa 0,0 l/m 3,2 km/h (1 Bft) S-SO 157 10 min 0,000 mm 652 W/m 1,4 C 11,4 C 9,7 km/h (2 Bft) 100,00 %
20.03.2019 12:40 11,5 C 11,4 C 11,6 C 49 % 0 cb 1035,1 hPa 0,0 l/m 3,2 km/h (1 Bft) S-SO 157 10 min 0,000 mm 664 W/m 1,2 C 11,5 C 9,7 km/h (2 Bft) 100,00 %
20.03.2019 12:50 11,5 C 11,4 C 11,6 C 48 % 0 cb 1035,1 hPa 0,0 l/m 1,6 km/h (1 Bft) SO 135 10 min 0,000 mm 671 W/m 0,9 C 11,5 C 14,5 km/h (3 Bft) 100,00 %
20.03.2019 13:00 11,8 C 11,6 C 11,8 C 51 % 0 cb 1034,9 hPa 0,0 l/m 3,2 km/h (1 Bft) S 180 10 min 0,330 mm 679 W/m 2,0 C 11,8 C 8,0 km/h (2 Bft) 100,00 %
20.03.2019 13:10 12,1 C 11,8 C 12,2 C 45 % 0 cb 1034,7 hPa 0,0 l/m 3,2 km/h (1 Bft) W 270 10 min 0,000 mm 626 W/m 0,5 C 12,1 C 11,3 km/h (2 Bft) 100,00 %
20.03.2019 13:20 11,8 C 11,8 C 12,1 C 46 % 0 cb 1034,6 hPa 0,0 l/m 1,6 km/h (1 Bft) S 180 10 min 0,000 mm 622 W/m 0,6 C 11,8 C 8,0 km/h (2 Bft) 100,00 %
20.03.2019 13:30 11,8 C 11,7 C 11,8 C 46 % 0 cb 1034,6 hPa 0,0 l/m 1,6 km/h (1 Bft) S-SO 157 10 min 0,000 mm 587 W/m 0,6 C 11,8 C 9,7 km/h (2 Bft) 100,00 %
20.03.2019 13:40 12,1 C 11,8 C 12,1 C 49 % 0 cb 1034,6 hPa 0,0 l/m 1,6 km/h (1 Bft) S-SW 202 10 min 0,000 mm 591 W/m 1,7 C 12,1 C 6,4 km/h (2 Bft) 100,00 %
20.03.2019 13:50 11,9 C 11,9 C 12,1 C 46 % 0 cb 1034,5 hPa 0,0 l/m 3,2 km/h (1 Bft) S-SW 202 10 min 0,000 mm 571 W/m 0,7 C 11,9 C 12,9 km/h (3 Bft) 100,00 %
20.03.2019 14:00 12,2 C 11,9 C 12,2 C 48 % 0 cb 1034,4 hPa 0,0 l/m 1,6 km/h (1 Bft) W-SW 247 10 min 0,279 mm 573 W/m 1,5 C 12,2 C 4,8 km/h (1 Bft) 100,00 %
20.03.2019 14:10 12,2 C 12,2 C 12,3 C 46 % 0 cb 1034,4 hPa 0,0 l/m 3,2 km/h (1 Bft) SO 135 10 min 0,000 mm 550 W/m 0,9 C 12,2 C 11,3 km/h (2 Bft) 100,00 %
20.03.2019 14:20 11,9 C 11,9 C 12,2 C 46 % 0 cb 1034,3 hPa 0,0 l/m 1,6 km/h (1 Bft) O-SO 112 10 min 0,000 mm 541 W/m 0,7 C 11,9 C 9,7 km/h (2 Bft) 100,00 %
20.03.2019 14:30 12,1 C 11,9 C 12,1 C 46 % 0 cb 1034,1 hPa 0,0 l/m 1,6 km/h (1 Bft) S-SW 202 10 min 0,000 mm 485 W/m 0,8 C 12,1 C 8,0 km/h (2 Bft) 100,00 %
20.03.2019 14:40 12,3 C 12,1 C 12,3 C 46 % 0 cb 1034,1 hPa 0,0 l/m 3,2 km/h (1 Bft) S-SO 157 10 min 0,000 mm 515 W/m 1,0 C 12,3 C 9,7 km/h (2 Bft) 100,00 %
20.03.2019 14:50 12,3 C 12,3 C 12,4 C 46 % 0 cb 1034,1 hPa 0,0 l/m 3,2 km/h (1 Bft) S 180 10 min 0,000 mm 501 W/m 1,0 C 12,3 C 12,9 km/h (3 Bft) 100,00 %
20.03.2019 15:00 12,3 C 12,2 C 12,4 C 46 % 0 cb 1034,1 hPa 0,0 l/m 1,6 km/h (1 Bft) O-SO 112 10 min 0,229 mm 411 W/m 1,0 C 12,3 C 9,7 km/h (2 Bft) 99,56 %
20.03.2019 15:10 12,3 C 12,3 C 12,4 C 43 % 0 cb 1034,1 hPa 0,0 l/m 1,6 km/h (1 Bft) O-SO 112 10 min 0,000 mm 383 W/m 0,1 C 12,3 C 4,8 km/h (1 Bft) 100,00 %
20.03.2019 15:20 12,6 C 12,3 C 12,6 C 47 % 0 cb 1034,1 hPa 0,0 l/m 1,6 km/h (1 Bft) O 90 10 min 0,000 mm 496 W/m 1,6 C 12,6 C 6,4 km/h (2 Bft) 100,00 %
20.03.2019 15:30 13,0 C 12,6 C 13,0 C 46 % 0 cb 1034,1 hPa 0,0 l/m 1,6 km/h (1 Bft) O 90 10 min 0,000 mm 480 W/m 1,7 C 13,0 C 6,4 km/h (2 Bft) 100,00 %
20.03.2019 15:40 13,0 C 13,0 C 13,1 C 44 % 0 cb 1034,0 hPa 0,0 l/m 3,2 km/h (1 Bft) O 90 10 min 0,000 mm 468 W/m 1,0 C 13,0 C 9,7 km/h (2 Bft) 100,00 %
20.03.2019 15:50 13,0 C 12,8 C 13,0 C 42 % 0 cb 1034,0 hPa 0,0 l/m 1,6 km/h (1 Bft) O 90 10 min 0,000 mm 431 W/m 0,4 C 13,0 C 6,4 km/h (2 Bft) 100,00 %
20.03.2019 16:00 13,1 C 12,9 C 13,1 C 43 % 0 cb 1034,0 hPa 0,0 l/m 1,6 km/h (1 Bft) O 90 10 min 0,229 mm 399 W/m 0,8 C 13,1 C 9,7 km/h (2 Bft) 100,00 %
20.03.2019 16:10 12,9 C 12,9 C 13,1 C 42 % 0 cb 1033,9 hPa 0,0 l/m 3,2 km/h (1 Bft) O 90 10 min 0,000 mm 392 W/m 0,3 C 12,9 C 9,7 km/h (2 Bft) 100,00 %
20.03.2019 16:20 13,2 C 12,8 C 13,2 C 44 % 0 cb 1033,8 hPa 0,0 l/m 1,6 km/h (1 Bft) O-SO 112 10 min 0,000 mm 352 W/m 1,2 C 13,2 C 9,7 km/h (2 Bft) 100,00 %
20.03.2019 16:30 13,2 C 13,2 C 13,3 C 44 % 0 cb 1033,8 hPa 0,0 l/m 1,6 km/h (1 Bft) O 90 10 min 0,000 mm 339 W/m 1,2 C 13,2 C 11,3 km/h (2 Bft) 100,00 %
20.03.2019 16:40 13,4 C 13,2 C 13,4 C 43 % 0 cb 1033,8 hPa 0,0 l/m 1,6 km/h (1 Bft) O 90 10 min 0,000 mm 320 W/m 1,1 C 13,4 C 9,7 km/h (2 Bft) 100,00 %
20.03.2019 16:50 13,3 C 13,3 C 13,4 C 43 % 0 cb 1033,8 hPa 0,0 l/m 1,6 km/h (1 Bft) O 90 10 min 0,000 mm 265 W/m 1,0 C 13,3 C 6,4 km/h (2 Bft) 100,00 %
20.03.2019 17:00 13,3 C 13,3 C 13,4 C 42 % 0 cb 1034,0 hPa 0,0 l/m 1,6 km/h (1 Bft) O-SO 112 10 min 0,178 mm 253 W/m 0,7 C 13,3 C 6,4 km/h (2 Bft) 100,00 %
20.03.2019 17:10 13,3 C 13,3 C 13,3 C 43 % 0 cb 1033,8 hPa 0,0 l/m 1,6 km/h (1 Bft) O-SO 112 10 min 0,000 mm 213 W/m 1,0 C 13,3 C 8,0 km/h (2 Bft) 100,00 %
20.03.2019 17:20 13,3 C 13,3 C 13,3 C 42 % 0 cb 1033,5 hPa 0,0 l/m 1,6 km/h (1 Bft) SO 135 10 min 0,000 mm 183 W/m 0,7 C 13,3 C 4,8 km/h (1 Bft) 100,00 %
20.03.2019 17:30 13,2 C 13,2 C 13,3 C 43 % 0 cb 1034,3 hPa 0,0 l/m 1,6 km/h (1 Bft) O 90 0 min 0,000 mm 151 W/m 0,9 C 13,2 C 9,7 km/h (2 Bft) 100,00 %
20.03.2019 17:40 12,6 C 12,6 C 13,2 C 43 % 0 cb 1034,2 hPa 0,0 l/m 1,6 km/h (1 Bft) O 90 0 min 0,000 mm 125 W/m 0,4 C 12,6 C 8,0 km/h (2 Bft) 100,00 %
20.03.2019 17:50 12,1 C 12,1 C 12,6 C 45 % 0 cb 1034,2 hPa 0,0 l/m 1,6 km/h (1 Bft) O 90 0 min 0,000 mm 91 W/m 0,5 C 12,1 C 6,4 km/h (2 Bft) 100,00 %
20.03.2019 18:00 11,7 C 11,7 C 12,1 C 45 % 0 cb 1034,2 hPa 0,0 l/m 0,0 km/h (0 Bft) O 90 0 min 0,076 mm 69 W/m 0,2 C 11,7 C 4,8 km/h (1 Bft) 100,00 %
20.03.2019 18:10 11,2 C 11,2 C 11,7 C 45 % 0 cb 1034,2 hPa 0,0 l/m 0,0 km/h (0 Bft) O 90 0 min 0,000 mm 28 W/m -0,3 C 11,2 C 4,8 km/h (1 Bft) 100,00 %
20.03.2019 18:20 10,8 C 10,8 C 11,2 C 45 % 0 cb 1034,1 hPa 0,0 l/m 0,0 km/h (0 Bft) O 90 0 min 0,000 mm 21 W/m -0,6 C 10,8 C 4,8 km/h (1 Bft) 100,00 %
20.03.2019 18:30 10,3 C 10,3 C 10,7 C 46 % 0 cb 1034,1 hPa 0,0 l/m 0,0 km/h (0 Bft) O 90 0 min 0,000 mm 16 W/m -0,8 C 10,3 C 3,2 km/h (1 Bft) 100,00 %
20.03.2019 18:40 9,8 C 9,8 C 10,3 C 47 % 0 cb 1034,2 hPa 0,0 l/m 0,0 km/h (0 Bft) N 0 0 min 0,000 mm 11 W/m -1,0 C 9,8 C 0,0 km/h (0 Bft) 100,00 %
20.03.2019 18:50 9,4 C 9,4 C 9,8 C 48 % 0 cb 1034,3 hPa 0,0 l/m 0,0 km/h (0 Bft) N 0 0 min 0,000 mm 5 W/m -1,0 C 9,4 C 0,0 km/h (0 Bft) 100,00 %
20.03.2019 19:00 8,9 C 8,9 C 9,4 C 51 % 0 cb 1034,4 hPa 0,0 l/m 0,0 km/h (0 Bft) N 0 0 min 0,025 mm 0 W/m -0,7 C 8,9 C 0,0 km/h (0 Bft) 100,00 %
20.03.2019 19:10 8,4 C 8,4 C 8,9 C 51 % 0 cb 1034,4 hPa 0,0 l/m 0,0 km/h (0 Bft) N 0 0 min 0,000 mm 0 W/m -1,1 C 8,4 C 0,0 km/h (0 Bft) 100,00 %
20.03.2019 19:20 8,2 C 8,2 C 8,4 C 53 % 0 cb 1034,4 hPa 0,0 l/m 0,0 km/h (0 Bft) N 0 0 min 0,000 mm 0 W/m -0,8 C 8,2 C 0,0 km/h (0 Bft) 100,00 %
20.03.2019 19:30 7,9 C 7,9 C 8,2 C 53 % 0 cb 1034,6 hPa 0,0 l/m 0,0 km/h (0 Bft) N 0 0 min 0,000 mm 0 W/m -1,1 C 7,9 C 0,0 km/h (0 Bft) 100,00 %
20.03.2019 19:40 7,7 C 7,7 C 7,9 C 54 % 0 cb 1034,7 hPa 0,0 l/m 0,0 km/h (0 Bft) N 0 0 min 0,000 mm 0 W/m -1,0 C 7,7 C 0,0 km/h (0 Bft) 100,00 %
20.03.2019 19:50 7,4 C 7,4 C 7,7 C 56 % 0 cb 1034,7 hPa 0,0 l/m 0,0 km/h (0 Bft) N 0 0 min 0,000 mm 0 W/m -0,8 C 7,4 C 0,0 km/h (0 Bft) 99,56 %
20.03.2019 20:00 7,1 C 7,1 C 7,4 C 57 % 0 cb 1034,8 hPa 0,0 l/m 0,0 km/h (0 Bft) N 0 0 min 0,025 mm 0 W/m -0,8 C 7,1 C 0,0 km/h (0 Bft) 100,00 %
20.03.2019 20:10 6,9 C 6,8 C 7,1 C 59 % 0 cb 1034,9 hPa 0,0 l/m 0,0 km/h (0 Bft) N 0 0 min 0,000 mm 0 W/m -0,5 C 6,9 C 0,0 km/h (0 Bft) 100,00 %
20.03.2019 20:20 6,6 C 6,6 C 6,8 C 60 % 0 cb 1034,9 hPa 0,0 l/m 0,0 km/h (0 Bft) N 0 0 min 0,000 mm 0 W/m -0,6 C 6,6 C 0,0 km/h (0 Bft) 100,00 %
20.03.2019 20:30 6,2 C 6,2 C 6,6 C 62 % 0 cb 1035,0 hPa 0,0 l/m 0,0 km/h (0 Bft) N 0 0 min 0,000 mm 0 W/m -0,5 C 6,2 C 0,0 km/h (0 Bft) 100,00 %
20.03.2019 20:40 5,9 C 5,9 C 6,2 C 63 % 0 cb 1035,0 hPa 0,0 l/m 0,0 km/h (0 Bft) N 0 0 min 0,000 mm 0 W/m -0,6 C 5,9 C 0,0 km/h (0 Bft) 100,00 %
20.03.2019 20:50 5,9 C 5,8 C 5,9 C 63 % 0 cb 1035,0 hPa 0,0 l/m 0,0 km/h (0 Bft) N 0 0 min 0,000 mm 0 W/m -0,6 C 5,9 C 0,0 km/h (0 Bft) 100,00 %
20.03.2019 21:00 6,0 C 5,9 C 6,0 C 62 % 0 cb 1035,1 hPa 0,0 l/m 0,0 km/h (0 Bft) O 90 0 min 0,025 mm 0 W/m -0,7 C 6,0 C 3,2 km/h (1 Bft) 99,56 %
20.03.2019 21:10 6,1 C 6,0 C 6,1 C 62 % 0 cb 1035,0 hPa 0,0 l/m 0,0 km/h (0 Bft) O 90 0 min 0,000 mm 0 W/m -0,6 C 6,1 C 1,6 km/h (1 Bft) 99,56 %
20.03.2019 21:20 6,0 C 6,0 C 6,1 C 61 % 0 cb 1035,2 hPa 0,0 l/m 0,0 km/h (0 Bft) O 90 0 min 0,000 mm 0 W/m -0,9 C 6,0 C 3,2 km/h (1 Bft) 100,00 %
20.03.2019 21:30 5,9 C 5,9 C 6,0 C 61 % 0 cb 1035,3 hPa 0,0 l/m 0,0 km/h (0 Bft) O 90 0 min 0,000 mm 0 W/m -1,0 C 5,9 C 3,2 km/h (1 Bft) 100,00 %
20.03.2019 21:40 6,0 C 5,9 C 6,0 C 61 % 0 cb 1035,4 hPa 0,0 l/m 1,6 km/h (1 Bft) O 90 0 min 0,000 mm 0 W/m -0,9 C 6,0 C 3,2 km/h (1 Bft) 100,00 %
20.03.2019 21:50 5,9 C 5,9 C 6,0 C 61 % 0 cb 1035,4 hPa 0,0 l/m 0,0 km/h (0 Bft) O 90 0 min 0,000 mm 0 W/m -1,0 C 5,9 C 3,2 km/h (1 Bft) 100,00 %
20.03.2019 22:00 5,9 C 5,9 C 5,9 C 61 % 0 cb 1035,4 hPa 0,0 l/m 1,6 km/h (1 Bft) O 90 0 min 0,025 mm 0 W/m -1,0 C 5,9 C 3,2 km/h (1 Bft) 100,00 %
20.03.2019 22:10 5,8 C 5,8 C 5,9 C 61 % 0 cb 1035,4 hPa 0,0 l/m 0,0 km/h (0 Bft) O 90 0 min 0,000 mm 0 W/m -1,1 C 5,8 C 3,2 km/h (1 Bft) 100,00 %
20.03.2019 22:20 5,6 C 5,6 C 5,8 C 62 % 0 cb 1035,5 hPa 0,0 l/m 0,0 km/h (0 Bft) O 90 0 min 0,000 mm 0 W/m -1,1 C 5,6 C 3,2 km/h (1 Bft) 100,00 %
20.03.2019 22:30 5,4 C 5,4 C 5,6 C 63 % 0 cb 1035,4 hPa 0,0 l/m 0,0 km/h (0 Bft) O 90 0 min 0,000 mm 0 W/m -1,1 C 5,4 C 6,4 km/h (2 Bft) 99,12 %
20.03.2019 22:40 5,4 C 5,4 C 5,4 C 63 % 0 cb 1035,4 hPa 0,0 l/m 1,6 km/h (1 Bft) O-NO 67 0 min 0,000 mm 0 W/m -1,1 C 5,4 C 4,8 km/h (1 Bft) 100,00 %
20.03.2019 22:50 5,4 C 5,4 C 5,4 C 63 % 0 cb 1035,5 hPa 0,0 l/m 1,6 km/h (1 Bft) O-NO 67 0 min 0,000 mm 0 W/m -1,1 C 5,4 C 6,4 km/h (2 Bft) 100,00 %
20.03.2019 23:00 5,3 C 5,3 C 5,4 C 64 % 0 cb 1035,5 hPa 0,0 l/m 0,0 km/h (0 Bft) O-NO 67 0 min 0,025 mm 0 W/m -0,9 C 5,3 C 3,2 km/h (1 Bft) 100,00 %
20.03.2019 23:10 5,1 C 5,1 C 5,3 C 64 % 0 cb 1035,6 hPa 0,0 l/m 0,0 km/h (0 Bft) O-NO 67 0 min 0,000 mm 0 W/m -1,1 C 5,1 C 3,2 km/h (1 Bft) 100,00 %
20.03.2019 23:20 4,8 C 4,8 C 5,1 C 65 % 0 cb 1035,6 hPa 0,0 l/m 0,0 km/h (0 Bft) O-NO 67 0 min 0,000 mm 0 W/m -1,2 C 4,8 C 1,6 km/h (1 Bft) 100,00 %
20.03.2019 23:30 4,4 C 4,4 C 4,8 C 69 % 0 cb 1035,5 hPa 0,0 l/m 0,0 km/h (0 Bft) N 0 0 min 0,000 mm 0 W/m -0,8 C 4,4 C 0,0 km/h (0 Bft) 100,00 %
20.03.2019 23:40 4,1 C 4,1 C 4,4 C 69 % 0 cb 1035,4 hPa 0,0 l/m 0,0 km/h (0 Bft) O-NO 67 0 min 0,000 mm 0 W/m -1,1 C 4,1 C 3,2 km/h (1 Bft) 100,00 %
20.03.2019 23:50 4,3 C 4,1 C 4,3 C 69 % 0 cb 1035,5 hPa 0,0 l/m 1,6 km/h (1 Bft) O-NO 67 0 min 0,000 mm 0 W/m -0,9 C 4,3 C 4,8 km/h (1 Bft) 100,00 %
_ Min-Zeit 06:50 06:50 06:50 15:50 00:00 00:00 - 00:00 - - - - - 06:40 06:50 01:40 07:40
Minimum _ -2,1 C -2,1 C -2,0 C 42 % 0 cb 1032,9 hPa - 0,0 km/h (0 Bft) - - - - - -3,6 C -2,1 C 0,0 km/h (0 Bft) 98,68 %
_ Max-Zeit 16:40 16:50 16:40 08:20 00:00 11:10 00:00 11:30 - - 08:10 13:00 13:00 09:30 16:40 12:50 00:00
Maximum _ 13,4 C 13,3 C 13,4 C 93 % 0 cb 1035,7 hPa 0,0 l/m 3,2 km/h
SO (1 Bft)
- - 10 min 0,330 mm 679 W/m 2,6 C 13,4 C 14,5 km/h
S (3 Bft)
100,00 %
Durchschnitt _ 5,7 C 5,6 C 5,8 C 65 % 0 cb 1034,4 hPa #0,0 l/m 0,8 km/h (0 Bft) O - #9:20 h #2,309 mm 374 W/m -0,9 C 5,7 C 3,7 km/h (1 Bft) 99,93 %
Wetterstation Gdesweiler